TimeEST,TemperatureF,Dew PointF,Humidity,Sea Level PressureIn,VisibilityMPH,Wind Direction,Wind SpeedMPH,Gust SpeedMPH,PrecipitationIn,Events,Conditions,WindDirDegrees,DateUTC
12:15 AM,34.0,26.2,73,30.36,10.0,Calm,Calm,-,N/A,,Clear,0,2012-11-19 05:15:00
12:35 AM,32.9,25.5,74,30.36,10.0,Calm,Calm,-,N/A,,Clear,0,2012-11-19 05:35:00
12:55 AM,31.6,25.2,77,30.35,10.0,Calm,Calm,-,N/A,,Clear,0,2012-11-19 05:55:00
1:15 AM,32.5,26.6,79,30.35,10.0,Calm,Calm,-,N/A,,Clear,0,2012-11-19 06:15:00
1:35 AM,33.3,25.9,74,30.35,10.0,Calm,Calm,-,N/A,,Clear,0,2012-11-19 06:35:00
1:55 AM,32.2,25.9,78,30.35,10.0,Calm,Calm,-,N/A,,Clear,0,2012-11-19 06:55:00
2:15 AM,33.1,26.1,75,30.34,10.0,Calm,Calm,-,N/A,,Clear,0,2012-11-19 07:15:00
2:35 AM,32.5,24.8,73,30.35,10.0,Calm,Calm,-,N/A,,Clear,0,2012-11-19 07:35:00
2:55 AM,33.6,25.5,72,30.35,10.0,Calm,Calm,-,N/A,,Clear,0,2012-11-19 07:55:00
3:15 AM,32.0,25.9,78,30.35,10.0,Calm,Calm,-,N/A,,Clear,0,2012-11-19 08:15:00
3:35 AM,32.0,26.4,80,30.34,10.0,Calm,Calm,-,N/A,,Clear,0,2012-11-19 08:35:00
3:55 AM,32.9,26.6,78,30.34,10.0,Calm,Calm,-,N/A,,Clear,0,2012-11-19 08:55:00
4:15 AM,34.0,26.6,74,30.33,10.0,Calm,Calm,-,N/A,,Clear,0,2012-11-19 09:15:00
4:35 AM,32.9,26.8,78,30.32,10.0,Calm,Calm,-,N/A,,Clear,0,2012-11-19 09:35:00
4:55 AM,33.8,26.8,75,30.33,10.0,Calm,Calm,-,N/A,,Clear,0,2012-11-19 09:55:00
5:15 AM,32.5,26.8,79,30.33,10.0,Calm,Calm,-,N/A,,Clear,0,2012-11-19 10:15:00
5:35 AM,32.2,27.3,82,30.33,10.0,SE,3.5,-,N/A,,Clear,140,2012-11-19 10:35:00
5:55 AM,32.0,27.1,82,30.33,10.0,Calm,Calm,-,N/A,,Clear,0,2012-11-19 10:55:00
6:15 AM,32.9,27.1,79,30.33,10.0,Calm,Calm,-,N/A,,Clear,0,2012-11-19 11:15:00
6:35 AM,34.3,27.1,75,30.32,10.0,Calm,Calm,-,N/A,,Clear,0,2012-11-19 11:35:00
6:55 AM,32.0,26.8,81,30.32,10.0,Calm,Calm,-,N/A,,Clear,0,2012-11-19 11:55:00
7:15 AM,33.6,27.3,78,30.32,10.0,Calm,Calm,-,N/A,,Clear,0,2012-11-19 12:15:00
7:35 AM,32.7,27.9,82,30.33,10.0,Calm,Calm,-,N/A,,Clear,0,2012-11-19 12:35:00
7:55 AM,33.8,27.5,78,30.33,10.0,SSE,3.5,-,N/A,,Clear,160,2012-11-19 12:55:00
8:15 AM,33.8,28.6,81,30.33,10.0,SE,3.5,-,N/A,,Clear,140,2012-11-19 13:15:00
8:35 AM,35.4,28.4,76,30.33,10.0,Calm,Calm,-,N/A,,Clear,0,2012-11-19 13:35:00
8:55 AM,37.9,29.5,72,30.33,10.0,Calm,Calm,-,N/A,,Clear,0,2012-11-19 13:55:00
9:15 AM,41.7,31.5,67,30.33,10.0,Calm,Calm,-,N/A,,Clear,0,2012-11-19 14:15:00
9:35 AM,45.3,31.5,58,30.33,10.0,Calm,Calm,-,N/A,,Clear,0,2012-11-19 14:35:00
9:55 AM,47.5,31.3,53,30.33,10.0,South,3.5,-,N/A,,Clear,180,2012-11-19 14:55:00
10:15 AM,49.6,31.8,50,30.33,10.0,South,4.6,-,N/A,,Clear,190,2012-11-19 15:15:00
10:35 AM,51.4,30.4,44,30.33,10.0,South,4.6,-,N/A,,Clear,190,2012-11-19 15:35:00
10:55 AM,53.6,29.8,40,30.33,10.0,SSW,4.6,-,N/A,,Clear,200,2012-11-19 15:55:00
11:15 AM,54.7,29.7,38,30.32,10.0,South,3.5,-,N/A,,Clear,180,2012-11-19 16:15:00
11:35 AM,55.9,28.8,35,30.32,10.0,SW,3.5,-,N/A,,Clear,220,2012-11-19 16:35:00
11:55 AM,56.3,29.3,36,30.31,10.0,SSW,4.6,-,N/A,,Clear,210,2012-11-19 16:55:00
12:15 PM,55.9,30.0,37,30.30,10.0,SSW,3.5,-,N/A,,Clear,210,2012-11-19 17:15:00
12:35 PM,56.7,30.0,36,30.29,10.0,Calm,Calm,-,N/A,,Clear,0,2012-11-19 17:35:00
12:55 PM,57.6,30.0,35,30.28,10.0,SSE,3.5,-,N/A,,Clear,160,2012-11-19 17:55:00
1:15 PM,58.1,30.4,35,30.27,10.0,SSW,4.6,-,N/A,,Clear,200,2012-11-19 18:15:00
1:35 PM,58.1,29.7,34,30.26,10.0,South,4.6,-,N/A,,Clear,190,2012-11-19 18:35:00
1:55 PM,58.1,29.5,34,30.26,10.0,SSW,4.6,-,N/A,,Clear,210,2012-11-19 18:55:00
2:15 PM,58.6,29.3,33,30.25,10.0,South,4.6,-,N/A,,Clear,180,2012-11-19 19:15:00
2:35 PM,58.1,30.7,35,30.24,10.0,South,5.8,-,N/A,,Clear,180,2012-11-19 19:35:00
2:55 PM,58.1,30.6,35,30.24,10.0,SSW,4.6,-,N/A,,Clear,200,2012-11-19 19:55:00
3:15 PM,57.7,32.0,38,30.24,10.0,SW,4.6,-,N/A,,Scattered Clouds,220,2012-11-19 20:15:00
3:35 PM,57.7,32.0,38,30.24,10.0,SSW,4.6,-,N/A,,Scattered Clouds,200,2012-11-19 20:35:00
3:55 PM,57.2,32.5,39,30.24,10.0,SSW,3.5,-,N/A,,Scattered Clouds,210,2012-11-19 20:55:00
4:15 PM,56.7,32.5,40,30.23,10.0,SW,4.6,-,N/A,,Clear,220,2012-11-19 21:15:00
4:35 PM,54.9,33.8,45,30.23,10.0,SSW,3.5,-,N/A,,Clear,210,2012-11-19 21:35:00
4:55 PM,53.4,32.9,46,30.23,10.0,SSW,4.6,-,N/A,,Clear,200,2012-11-19 21:55:00
5:15 PM,52.9,32.0,45,30.23,10.0,SSW,3.5,-,N/A,,Clear,200,2012-11-19 22:15:00
5:35 PM,50.0,32.5,51,30.22,10.0,Calm,Calm,-,N/A,,Clear,0,2012-11-19 22:35:00
5:55 PM,47.5,33.1,57,30.21,10.0,Calm,Calm,-,N/A,,Scattered Clouds,0,2012-11-19 22:55:00
6:15 PM,46.6,32.9,59,30.21,10.0,Calm,Calm,-,N/A,,Mostly Cloudy,0,2012-11-19 23:15:00
6:35 PM,46.9,33.4,59,30.21,10.0,Calm,Calm,-,N/A,,Scattered Clouds,0,2012-11-19 23:35:00
6:55 PM,45.7,33.8,63,30.22,10.0,Calm,Calm,-,N/A,,Clear,0,2012-11-19 23:55:00
7:15 PM,45.5,34.5,65,30.22,10.0,Calm,Calm,-,N/A,,Scattered Clouds,0,2012-11-20 00:15:00
7:35 PM,46.2,34.2,63,30.21,10.0,Calm,Calm,-,N/A,,Scattered Clouds,0,2012-11-20 00:35:00
7:55 PM,46.4,33.8,62,30.21,10.0,Calm,Calm,-,N/A,,Mostly Cloudy,0,2012-11-20 00:55:00
8:15 PM,45.1,35.4,69,30.21,10.0,Calm,Calm,-,N/A,,Scattered Clouds,0,2012-11-20 01:15:00
8:35 PM,44.8,35.6,70,30.21,10.0,Calm,Calm,-,N/A,,Scattered Clouds,0,2012-11-20 01:35:00
8:55 PM,45.0,35.2,69,30.21,10.0,Calm,Calm,-,N/A,,Mostly Cloudy,0,2012-11-20 01:55:00
9:15 PM,45.1,35.2,68,30.20,10.0,Calm,Calm,-,N/A,,Overcast,0,2012-11-20 02:15:00
9:35 PM,45.3,35.6,69,30.19,10.0,Calm,Calm,-,N/A,,Mostly Cloudy,0,2012-11-20 02:35:00
9:55 PM,45.5,35.1,67,30.19,10.0,Calm,Calm,-,N/A,,Overcast,0,2012-11-20 02:55:00
10:15 PM,44.8,35.6,70,30.19,10.0,Calm,Calm,-,N/A,,Overcast,0,2012-11-20 03:15:00
10:35 PM,45.5,35.1,67,30.19,10.0,Calm,Calm,-,N/A,,Scattered Clouds,0,2012-11-20 03:35:00
10:55 PM,45.3,35.2,68,30.18,10.0,Calm,Calm,-,N/A,,Scattered Clouds,0,2012-11-20 03:55:00
11:15 PM,44.8,35.4,70,30.18,10.0,Calm,Calm,-,N/A,,Mostly Cloudy,0,2012-11-20 04:15:00
11:55 PM,43.7,34.7,71,30.17,10.0,Calm,Calm,-,N/A,,Scattered Clouds,0,2012-11-20 04:55:00